Location: La Fromière
(47.7872°N, 1.3472°W)
Time: 16:36:32
(UTC+00:00)

Daily predictions for brighter satellites

Satellite Brightness Start Highest point End
(mag) Time Altitude Azimuth Time Altitude Azimuth Time Altitude Azimuth
Cosmos 1271 Rocket 3.4 20:42:10 10° N 20:45:58 41° ENE 20:49:43 10° SE
Cosmos 1420 Rocket 4.2 20:41:59 10° S 20:47:04 53° ESE 20:52:13 10° NNE
Cosmos 676 Rocket 4.2 20:42:22 10° NNW 20:47:41 66° ENE 20:52:55 10° SSE
Cosmos 1544 Rocket 3.9 20:45:47 10° N 20:50:01 49° ENE 20:54:13 10° SSE
Lacrosse 5 rocket 1.5 20:46:34 10° WNW 20:50:19 59° SW 20:54:18 10° SE
Tiangong 2.5 20:48:24 10° WSW 20:51:02 24° S 20:53:39 10° SE
USA 276 2.1 20:54:07 10° SW 20:57:01 48° SSE 20:59:56 10° ENE
X-37B 0.9 20:54:54 10° WSW 20:57:31 36° SSE 21:00:09 10° E
Helios 1A Rocket 3.7 20:53:46 10° SE 20:57:33 39° ENE 21:01:23 10° N
NOSS 2-1 (C) 4.1 20:54:30 10° NW 20:58:54 77° NE 21:05:09 10° SE
SPOT 5 3.1 20:55:43 10° SE 20:59:56 45° ENE 21:04:04 10° N
Ariane Rocket 3.3 20:57:28 10° S 21:02:33 69° WSW 21:07:39 10° NNW
USA 267 4.1 20:57:29 10° ENE 21:02:49 26° SE 21:08:08 10° S
Cosmos 1954 Rocket 4.1 21:00:06 10° NNW 21:05:25 84° WSW 21:10:38 10° SSE
SPOT 1/Viking Rocket 4.2 21:00:50 10° S 21:05:51 55° W 21:10:57 10° NNW
USA 32 4.1 21:00:57 10° S 21:06:07 67° E 21:11:19 10° N
RESURS DK-1 3.7 21:03:09 10° NNW 21:06:50 30° NE 21:10:30 10° ESE
NOSS 2-1 (D) 4.0 21:04:47 10° NW 21:09:16 89° NE 21:15:22 11° SE
Resurs 01 Rocket 3.0 21:08:20 10° SSW 21:12:27 37° W 21:16:37 10° NNW
Cosmos 1455 2.1 21:09:05 10° N 21:12:55 80° E 21:16:44 10° SSE
Cosmos 2184 Rocket 4.4 21:07:03 10° N 21:13:03 50° ENE 21:18:46 11° SSE
Lacrosse 5 2.1 21:19:22 10° WNW 21:24:25 64° SW 21:28:44 14° SE
Terra 2.1 21:21:16 13° SSE 21:25:28 57° ENE 21:30:10 10° N
Cosmos 1025 Rocket 4.1 21:25:57 10° SSW 21:30:03 46° WNW 21:34:13 10° N
TSX-5 4.5 21:25:52 10° S 21:30:08 54° ESE 21:35:39 10° NE
USA 102 3.4 21:23:43 13° SE 21:31:56 53° E 21:33:14 20° NNE
Spot 2 Rocket 3.5 21:28:27 11° SSE 21:33:20 85° WSW 21:38:29 10° NNW
Meteor 2-5 Rocket 4.5 21:28:04 10° SSW 21:33:28 53° WNW 21:38:56 10° N
CZ-4B R/B 3.5 21:31:32 10° NNW 21:33:53 23° WNW 21:36:13 10° WSW
Cosmos 1980 Rocket 3.6 21:30:55 10° NNW 21:35:51 29° NE 21:40:43 10° ESE
ATLAS 2AS CENTAUR R/B 3.0 21:29:15 10° NW 21:36:13 60° WSW 21:41:56 14° SSE
Cosmos 1697 Rocket 3.2 21:32:48 10° NNW 21:38:17 49° NE 21:42:50 15° SE
USA 234 4.0 21:32:00 10° E 21:38:19 53° NNE 21:44:40 10° NW
Cosmos 1452 Rocket 3.5 21:36:31 10° S 21:41:43 64° ESE 21:46:56 10° NNE
Cosmos 1703 3.3 21:39:26 14° S 21:42:38 61° E 21:46:27 10° NNE
Cosmos 1656 3.7 21:38:01 10° NNW 21:43:30 82° WSW 21:47:55 16° SSE
ARIANE 5 R/B 2.8 21:41:11 17° SSE 21:44:35 64° ENE 21:48:59 10° N
CZ-2C R/B 3.6 21:45:42 10° NNE 21:50:20 79° ESE 21:54:43 11° S
Cosmos 1110 Rocket 4.2 21:48:03 12° S 21:52:42 51° ESE 21:57:50 10° NNE
GP-B 4.5 21:49:22 10° NNE 21:53:04 25° E 21:55:18 17° ESE
SL-8 R/B 3.6 21:52:53 10° WNW 21:57:43 81° SSW 22:02:03 13° ESE
Cosmos 1328 4.4 21:55:44 21° SSE 21:57:54 40° E 22:01:40 10° NNE
Cosmos 2074 Rocket 4.2 21:54:10 10° NNW 22:00:27 75° W 22:05:53 14° S
Cosmos 2228 2.9 21:56:58 10° N 22:01:13 90° WNW 22:04:03 20° S
Cosmos 1536 Rocket 4.0 22:00:11 10° SSW 22:04:26 59° WNW 22:08:46 10° N
Cosmos 1833 Rocket 2.7 22:00:19 10° SSW 22:05:50 62° ESE 22:11:23 10° NNE
Cosmos 2084 Rocket 4.3 22:02:44 10° NNW 22:06:24 39° NE 22:09:23 15° ESE
ERS-1 Rocket 3.7 22:03:26 13° S 22:07:44 49° W 22:12:38 10° NNW
Meteor 1-21 Rocket 4.2 22:03:29 15° S 22:08:13 76° E 22:13:53 10° NNE
SAR-Lupe-1 4.4 22:06:51 10° NNE 22:10:20 46° E 22:11:51 28° SSE
Cosmos 1606 Rocket 3.5 22:06:45 10° N 22:11:05 75° E 22:13:37 24° SSE
Nadezhda 1 Rocket 3.9 22:11:21 14° S 22:16:39 87° E 22:22:45 10° N
Cosmos 2360 4.2 22:14:34 10° NNW 22:20:21 88° WSW 22:24:01 23° SSE
Cosmos 968 Rocket 3.9 22:18:52 10° NNW 22:23:59 55° ENE 22:27:10 23° SE
Cosmos 2154 Rocket 4.2 22:20:28 10° NNW 22:26:39 67° W 22:31:18 18° S
Cosmos 2082 Rocket 2.7 22:27:58 24° SSE 22:30:58 43° ESE 22:36:19 10° NE
ASTEX 1 3.4 22:27:18 10° N 22:32:19 70° E 22:35:10 26° S
USA 276 2.6 22:29:44 10° W 22:32:43 58° N 22:35:41 10° ENE
X-37B 0.8 22:30:03 10° W 22:32:25 42° SSW 22:32:25 42° SSW
Cosmos 1726 Rocket 3.5 22:31:07 10° NNW 22:35:26 79° W 22:37:38 29° S
ADEOS Rocket 4.3 22:30:44 16° SE 22:36:06 43° ENE 22:43:13 10° N
Cosmos 1825 3.4 22:38:07 24° ESE 22:38:53 26° E 22:42:03 10° NNE
RESURS DK-1 3.5 22:41:07 10° NW 22:44:49 32° WSW 22:46:32 23° SSW
USA 267 3.2 22:39:53 10° NE 22:46:28 82° SE 22:53:01 10° SW
Cosmos 1633 4.3 22:51:55 17° E 22:52:14 18° E 22:54:39 10° NE
SL-8 Rocket 4.0 22:48:40 10° N 22:54:58 83° E 22:58:31 27° SSE
ALOS 2 3.4 22:53:39 26° ESE 22:55:38 42° ENE 22:59:47 10° N
H-2A R/B 4.4 22:52:16 10° NNE 22:56:06 33° E 22:57:07 29° SE
Cosmos 1486 Rocket 4.5 22:55:47 10° NNW 23:00:53 52° ENE 23:03:46 25° SE
FALCON 9 DEB 4.4 23:00:05 10° WNW 23:03:11 38° NNE 23:06:17 10° E
Terra 3.9 23:00:14 10° SW 23:03:36 19° W 23:06:58 10° NW
Lacrosse 5 4.0 23:04:20 10° W 23:06:31 13° WSW 23:07:55 11° SW
Cosmos 1869 3.4 23:03:44 10° N 23:07:35 63° ENE 23:08:43 41° SE
Cosmos 2218 Rocket 4.0 23:02:44 10° N 23:09:13 88° E 23:12:46 29° S
Meteor 1-27 4.2 23:04:40 10° N 23:10:16 81° ENE 23:13:00 31° SSE
BREEZE-M DEB (TANK) 3.6 23:07:30 10° W 23:10:31 77° N 23:21:24 10° E
Cosmos 2366 rocket 4.0 23:05:07 10° N 23:11:29 90° WSW 23:14:58 29° S
Cosmos 1992 Rocket 4.3 23:09:46 33° SSE 23:11:46 50° ESE 23:16:50 10° NNE
Cosmos 2058 Rocket 3.4 23:07:51 10° NNW 23:12:11 57° W 23:14:00 32° SSW
COSMOS 2406 3.4 23:07:53 14° SW 23:12:49 72° WNW 23:18:36 10° NNE
Cosmos 1892 Rocket 4.3 23:10:35 22° SW 23:13:11 47° WNW 23:17:27 10° N
Cosmos 2369 4.0 23:08:34 10° NW 23:14:12 59° WSW 23:16:53 30° S
Cosmos 1892 2.9 23:13:06 36° SSW 23:14:26 64° W 23:18:11 10° N
SL-16 R/B 3.2 23:09:13 10° NNW 23:14:37 41° NE 23:18:41 17° ESE
TIMED 4.4 23:13:44 36° SSW 23:15:26 80° ESE 23:19:50 10° NNE
Cosmos 807 4.4 23:15:04 10° N 23:18:18 53° ENE 23:18:36 50° ESE
Cosmos-2242 3.9 23:14:40 10° N 23:18:40 38° ENE 23:20:11 28° ESE
Cosmos 2341 Rocket 4.4 23:12:48 10° NNW 23:18:59 58° W 23:22:37 25° SSW
Cosmos 1408 3.4 23:18:48 29° SW 23:20:02 42° WNW 23:23:20 10° N
Cosmos 1980 Rocket 2.4 23:14:38 10° NNW 23:20:14 59° WSW 23:22:48 31° S
USA 234 3.2 23:16:55 23° SE 23:21:12 72° SW 23:27:47 10° NW
Cosmos 1697 Rocket 3.9 23:17:11 10° NW 23:22:00 30° WSW 23:24:33 21° SW
Cosmos 1626 Rocket 3.4 23:26:41 41° S 23:28:10 87° E 23:32:31 10° N
GP-B 4.3 23:26:23 10° NNW 23:30:26 35° W 23:32:44 21° SW
BREEZE-M DEB (TANK) 3.7 23:23:39 10° WSW 23:35:09 75° SSE 23:38:40 10° ENE
In-Cosmos 22 Rocket 4.3 23:32:41 27° SSW 23:35:49 68° WNW 23:41:17 10° N
Cosmos 1503 Rocket 4.2 23:32:48 10° NNW 23:38:06 65° ENE 23:40:43 29° SE
Cosmos 1867 3.7 23:33:18 10° NW 23:38:40 58° WSW 23:40:44 36° S
SL-8 R/B 4.5 23:35:37 10° W 23:39:54 32° SW 23:39:58 32° SSW
Spot 4 4.4 23:39:20 32° SSW 23:41:08 47° W 23:45:47 10° NNW
Cosmos 2084 Rocket 4.4 23:42:17 10° WNW 23:45:41 29° WSW 23:45:49 29° SW
Okean 1-7 Rocket 4.2 23:48:43 29° SW 23:50:38 49° WNW 23:55:01 10° N
SJ 16-02 1.9 23:46:54 10° NNW 23:51:15 50° ENE 23:53:10 29° SE
ATLAS 5 CENTAUR R/B 1.1 23:51:31 55° S 23:52:11 69° SE 23:56:20 10° NE
Meteor 2-20 4.4 23:49:25 33° S 23:52:24 82° E 23:58:32 10° N
Cosmos 2322 Rocket 2.7 23:47:27 10° NNW 23:53:04 56° ENE 23:56:45 21° SE
